FW2462 Weather Reports


time (UTC)temp
C
wind
direction
speed
KPH
gust
KPH
rain 1hr
cm
rain 24hr
cm
rain mn
cm
humidity
%
barometer
mb
20260504150902 20 143 6.4 20.9 0.00 0.00 0.00 45 1019.8
20260504150624 20 304 6.4 20.9 0.00 0.00 0.00 45 1019.9
20260504140750 18 234 1.6 6.4 0.00 0.00 0.00 51 1019.3
20260504140502 18 281 3.2 8.0 0.00 0.00 0.00 50 1019.4
20260504130637 12 232 1.6 6.4 0.00 0.00 0.00 73 1019.5
20260504130624 11 176 1.6 4.8 0.00 0.00 0.00 73 1019.3
20260504100516 3 27 0.0 0.0 0.00 0.00 0.00 91 1018.8
20260504081903 5 28 0.0 1.6 0.00 0.00 0.00 85 1019.0
20260504081357 5 28 1.6 4.8 0.00 0.00 0.00 85 1019.0
20260504081113 5 28 1.6 4.8 0.00 0.00 0.00 85 1019.0
20260504080615 5 357 0.0 3.2 0.00 0.00 0.00 84 1019.0
20260504070233 9 256 0.0 1.6 0.00 0.00 0.00 68 1019.0
20260504060120 10 281 0.0 3.2 0.00 0.00 0.00 64 1018.9
20260504050515 11 211 0.0 3.2 0.00 0.00 0.00 58 1019.3
20260504050009 11 210 0.0 3.2 0.00 0.00 0.00 58 1019.3
20260504045503 11 227 0.0 0.0 0.00 0.00 0.00 58 1019.2
20260504044957 11 227 0.0 1.6 0.00 0.00 0.00 59 1019.3
20260504044949 11 227 0.0 3.2 0.00 0.00 0.00 57 1019.3
20260504044205 11 220 0.0 3.2 0.00 0.00 0.00 57 1019.3
20260504043705 11 134 0.0 1.6 0.00 0.00 0.00 58 1019.3
20260504042933 11 257 0.0 1.6 0.00 0.00 0.00 57 1019.3
20260504042427 11 253 0.0 1.6 0.00 0.00 0.00 57 1019.2
20260504042141 11 261 0.0 1.6 0.00 0.00 0.00 56 1019.1
20260504041415 12 261 0.0 1.6 0.00 0.00 0.00 57 1019.2
20260504040909 12 261 0.0 1.6 0.00 0.00 0.00 54 1019.1
20260504040402 12 263 0.0 1.6 0.00 0.00 0.00 54 1019.1
20260504035858 12 228 1.6 4.8 0.00 0.00 0.00 54 1019.1
20260504035622 12 221 1.6 4.8 0.00 0.00 0.00 54 1019.0
20260504035321 12 229 0.0 4.8 0.00 0.00 0.00 55 1019.1
20260504034340 12 208 0.0 3.2 0.00 0.00 0.00 54 1019.1
20260504033834 12 207 0.0 3.2 0.00 0.00 0.00 55 1019.2
20260504033328 11 262 0.0 1.6 0.00 0.00 0.00 56 1019.2
20260504032822 11 265 0.0 1.6 0.00 0.00 0.00 55 1019.1
20260504032316 11 212 0.0 1.6 0.00 0.00 0.00 55 1019.1
20260504031810 11 212 0.0 1.6 0.00 0.00 0.00 54 1019.2
20260504031305 12 212 0.0 1.6 0.00 0.00 0.00 54 1019.3
20260504030758 12 212 0.0 1.6 0.00 0.00 0.00 54 1019.3
20260504030258 12 212 0.0 3.2 0.00 0.00 0.00 53 1019.1
20260504025759 12 213 1.6 3.2 0.00 0.00 0.00 53 1019.1
20260504025024 12 220 1.6 4.8 0.00 0.00 0.00 54 1019.1
20260504023252 11 224 0.0 1.6 0.00 0.00 0.00 57 1019.2
20260504022752 10 218 0.0 1.6 0.00 0.00 0.00 59 1019.2
20260504022251 11 219 0.0 0.0 0.00 0.00 0.00 58 1019.2
20260504021751 11 219 0.0 0.0 0.00 0.00 0.00 58 1019.2
20260504021252 11 218 0.0 0.0 0.00 0.00 0.00 57 1019.1
20260504020750 11 218 0.0 0.0 0.00 0.00 0.00 56 1019.0
20260504020509 11 218 0.0 0.0 0.00 0.00 0.00 57 1019.1
20260504015749 11 218 0.0 1.6 0.00 0.00 0.00 56 1018.9
20260504015247 11 218 0.0 1.6 0.00 0.00 0.00 56 1018.8
20260504014745 11 219 0.0 1.6 0.00 0.00 0.00 56 1018.8
20260504014244 11 218 0.0 0.0 0.00 0.00 0.00 56 1018.7
20260504014012 11 218 0.0 0.0 0.00 0.00 0.00 55 1018.5
20260504013240 11 218 0.0 0.0 0.00 0.00 0.00 56 1018.5
20260504012733 12 218 0.0 0.0 0.00 0.00 0.00 55 1018.5
20260504012228 12 218 0.0 0.0 0.00 0.00 0.00 54 1018.5
20260504011722 12 218 0.0 1.6 0.00 0.00 0.00 53 1018.4
20260504011440 12 218 0.0 1.6 0.00 0.00 0.00 53 1018.5
20260504010709 12 218 0.0 1.6 0.00 0.00 0.00 52 1018.4
20260504010203 12 218 0.0 0.0 0.00 0.00 0.00 51 1018.4
20260504005850 13 218 0.0 1.6 0.00 0.00 0.00 51 1018.4
20260504005741 12 218 0.0 1.6 0.00 0.00 0.00 51 1018.4
20260504004644 13 218 0.0 1.6 0.00 0.00 0.00 50 1018.3
20260504004137 13 218 1.6 1.6 0.00 0.00 0.00 51 1018.3
20260504003632 13 208 0.0 3.2 0.00 0.00 0.00 50 1018.2
20260504003126 13 216 0.0 3.2 0.00 0.00 0.00 49 1018.2
20260504002626 13 219 0.0 1.6 0.00 0.00 0.00 49 1018.2
20260504002122 14 219 0.0 1.6 0.00 0.00 0.00 48 1018.1
20260504001624 14 226 0.0 1.6 0.00 0.00 0.00 47 1018.1
20260504001124 14 243 0.0 1.6 0.00 0.00 0.00 46 1017.9
20260503235121 15 198 1.6 4.8 0.00 0.00 0.00 42 1017.9
20260503234622 16 223 1.6 4.8 0.00 0.00 0.00 41 1018.1
20260503234342 16 214 1.6 4.8 0.00 0.00 0.00 39 1018.0
20260503233621 16 210 1.6 6.4 0.00 0.00 0.00 39 1018.0
20260503233121 16 217 1.6 6.4 0.00 0.00 0.00 38 1018.0
20260503232622 16 216 3.2 6.4 0.00 0.00 0.00 37 1018.1
20260503232120 17 185 3.2 6.4 0.00 0.00 0.00 36 1018.1
20260503231848 17 147 4.8 11.3 0.00 0.00 0.00 36 1018.1
20260503231121 17 214 4.8 11.3 0.00 0.00 0.00 35 1018.0
20260503230622 17 161 3.2 8.0 0.00 0.00 0.00 34 1018.1
20260503230121 17 179 1.6 8.0 0.00 0.00 0.00 34 1018.0
20260503225620 18 203 1.6 8.0 0.00 0.00 0.00 35 1017.8
20260503225342 18 167 1.6 4.8 0.00 0.00 0.00 34 1017.9
20260503224621 18 274 1.6 8.0 0.00 0.00 0.00 30 1017.9
20260503224120 19 278 1.6 8.0 0.00 0.00 0.00 30 1017.9
20260503223841 20 223 1.6 9.7 0.00 0.00 0.00 30 1017.9
20260503223120 20 269 1.6 9.7 0.00 0.00 0.00 30 1017.9
20260503222620 20 309 3.2 11.3 0.00 0.00 0.00 31 1017.9
20260503222118 20 222 3.2 11.3 0.00 0.00 0.00 30 1017.9
20260503221619 20 203 3.2 8.0 0.00 0.00 0.00 31 1018.1
20260503221118 20 216 3.2 11.3 0.00 0.00 0.00 30 1018.2
20260503220840 20 231 1.6 11.3 0.00 0.00 0.00 30 1018.2
20260503215618 19 223 6.4 16.1 0.00 0.00 0.00 30 1018.5
20260503215114 19 202 4.8 16.1 0.00 0.00 0.00 31 1018.4
20260503214615 20 255 3.2 14.5 0.00 0.00 0.00 30 1018.5
20260503214114 20 348 4.8 14.5 0.00 0.00 0.00 31 1018.7
20260503213613 20 279 3.2 8.0 0.00 0.00 0.00 31 1018.7
20260503213112 19 172 3.2 11.3 0.00 0.00 0.00 31 1018.6
20260503212614 19 307 4.8 16.1 0.00 0.00 0.00 32 1018.8
20260503212112 19 214 6.4 16.1 0.00 0.00 0.00 32 1018.8
20260503211616 19 173 3.2 14.5 0.00 0.00 0.00 32 1018.7
20260503211114 20 218 3.2 11.3 0.00 0.00 0.00 31 1018.8
20260503210838 19 127 4.8 12.9 0.00 0.00 0.00 31 1018.9
20260503210114 20 266 3.2 12.9 0.00 0.00 0.00 29 1018.8
20260503205612 20 141 3.2 9.7 0.00 0.00 0.00 31 1018.7
20260503205334 19 203 4.8 14.5 0.00 0.00 0.00 31 1018.7
20260503204612 19 200 6.4 16.1 0.00 0.00 0.00 31 1018.8
20260503204345 19 245 4.8 16.1 0.00 0.00 0.00 31 1018.8
20260503203839 19 234 4.8 12.9 0.00 0.00 0.00 30 1018.8
20260503203112 19 188 3.2 12.9 0.00 0.00 0.00 31 1018.9
20260503202614 19 260 4.8 12.9 0.00 0.00 0.00 29 1019.0
20260503202113 18 275 4.8 14.5 0.00 0.00 0.00 29 1019.0
20260503201611 18 249 4.8 14.5 0.00 0.00 0.00 31 1019.1
20260503201554 18 287 3.2 11.3 0.00 0.00 0.00 29 1019.2
20260503200608 18 260 3.2 11.3 0.00 0.00 0.00 28 1019.4
20260503200108 19 283 3.2 9.7 0.00 0.00 0.00 30 1019.4
20260503195608 18 207 3.2 9.7 0.00 0.00 0.00 30 1019.5
20260503195107 18 234 3.2 8.0 0.00 0.00 0.00 32 1019.6
20260503194607 18 123 3.2 8.0 0.00 0.00 0.00 30 1019.5
20260503194328 18 231 4.8 12.9 0.00 0.00 0.00 31 1019.6
20260503193604 18 343 4.8 12.9 0.00 0.00 0.00 33 1019.5
20260503193104 18 207 4.8 12.9 0.00 0.00 0.00 32 1019.6
20260503192609 18 173 4.8 12.9 0.00 0.00 0.00 33 1019.5
20260503192105 18 262 4.8 12.9 0.00 0.00 0.00 32 1019.8
20260503191604 18 50 3.2 12.9 0.00 0.00 0.00 33 1019.7
20260503191104 18 280 3.2 11.3 0.00 0.00 0.00 31 1019.8
20260503190604 18 150 3.2 12.9 0.00 0.00 0.00 32 1019.8
20260503190328 18 110 3.2 12.9 0.00 0.00 0.00 30 1019.9
20260503185605 18 277 3.2 12.9 0.00 0.00 0.00 31 1020.0
20260503185059 18 65 3.2 11.3 0.00 0.00 0.00 34 1020.0
20260503184818 17 81 3.2 11.3 0.00 0.00 0.00 32 1020.1
20260503184047 18 35 4.8 16.1 0.00 0.00 0.00 31 1020.2
20260503183803 17 278 8.0 20.9 0.00 0.00 0.00 33 1020.3
20260503183034 17 193 6.4 20.9 0.00 0.00 0.00 32 1020.3
20260503182528 17 129 4.8 14.5 0.00 0.00 0.00 33 1020.4
20260503182023 17 269 4.8 16.1 0.00 0.00 0.00 33 1020.6
20260503182011 17 148 4.8 16.1 0.00 0.00 0.00 35 1020.7
20260503181011 17 213 3.2 12.9 0.00 0.00 0.00 33 1020.8
20260503180504 17 218 3.2 12.9 0.00 0.00 0.00 33 1020.8
20260503175959 17 337 3.2 11.3 0.00 0.00 0.00 32 1021.0
20260503175942 17 51 3.2 11.3 0.00 0.00 0.00 33 1021.1
20260503174947 16 269 3.2 11.3 0.00 0.00 0.00 33 1021.1
20260503174705 16 214 3.2 11.3 0.00 0.00 0.00 35 1021.2
20260503173935 16 62 3.2 16.1 0.00 0.00 0.00 36 1021.2
20260503173429 16 91 4.8 16.1 0.00 0.00 0.00 35 1021.3
20260503173149 16 127 4.8 14.5 0.00 0.00 0.00 35 1021.2
20260503172420 16 279 3.2 12.9 0.00 0.00 0.00 34 1021.3
20260503171919 16 23 3.2 11.3 0.00 0.00 0.00 40 1021.2
20260503171420 15 6 3.2 11.3 0.00 0.00 0.00 41 1021.3
20260503170921 15 352 4.8 14.5 0.00 0.00 0.00 37 1021.3
20260503170645 15 332 4.8 14.5 0.00 0.00 0.00 34 1021.5